Location: Les Jeannots
(43.2262°N, 5.5774°E)
Time: 02:49:45
(UTC+00:00)

ATLAS CENTAUR R/B - Pass Details

Date: 05 July 2020
Orbit: 475 x 672 km, 64.7° (Epoch: 13 July)

Event Time Altitude Azimuth Distance (km) Brightness Sun altitude
Rises 21:52:19 0° 323° (NW) 2,558 6.3 -19.4°
Reaches altitude 10° 21:54:29 10° 321° (NW) 1,660 4.9 -19.6°
Maximum altitude 21:58:07 68° 239° (WSW) 514 1.0 -19.9°
Enters shadow 21:58:26 64° 202° (SSW) 531 1.0 -19.9°
